Wind_Speed
20 20 20 19 19 19 19 19 19 19 19 19 19 19 19 19 19 18 18 18 18 18 18 18 18 18 18 19 19 19 19 20 21 21 20 20 22 22 21 22 22 23 24 24 25 25 25 26 26 27 27 27 27 27 26 27 27 26 26 25 26 26 26 25 24 24 24 24 23 23 22 21 21 21 20 18 19 19 17 19 19 16 15 16 18 18 18 18
23 23 23 23 23 22 22 22 22 22 22 22 22 22 22 22 22 22 22 22 21 21 21 21 21 21 21 22 22 22 23 23 24 25 23 23 25 25 24 25 25 26 26 27 27 27 27 27 28 28 28 28 28 28 28 28 28 27 27 26 27 28 27 26 27 27 26 25 25 25 24 23 23 24 22 20 21 21 19 22 23 19 17 17 19 20 19 19
26 26 26 26 26 26 25 25 25 25 25 25 25 25 25 25 25 25 25 25 24 24 24 24 24 24 24 24 24 25 25 26 27 27 26 26 27 28 27 27 27 28 28 29 29 29 28 28 29 29 29 29 29 29 29 30 30 29 28 27 28 30 27 28 30 28 28 27 27 27 26 26 26 26 24 22 23 22 20 24 26 22 20 19 19 21 21 20
29 29 29 29 29 29 28 28 28 28 28 28 28 28 28 28 27 27 27 27 27 27 27 27 27 27 27 26 26 26 27 28 29 29 28 29 29 29 30 30 30 29 30 30 30 30 30 29 29 30 30 30 30 30 30 31 31 29 28 28 29 30 28 30 31 29 29 29 28 28 28 27 27 27 25 26 25 19 20 27 29 25 23 22 21 21 22 22
33 32 32 32 32 32 31 31 31 31 31 31 31 31 31 30 30 30 30 30 30 30 29 29 29 29 28 28 27 27 28 29 29 29 29 30 30 30 30 30 30 30 30 30 31 31 30 30 29 29 29 30 30 30 30 32 31 28 27 29 30 31 29 30 32 31 30 30 29 30 30 29 29 28 27 29 25 20 24 30 30 28 26 24 22 21 23 24
35 35 35 35 35 34 34 34 34 34 34 34 33 33 33 33 33 32 32 32 32 32 31 31 30 30 29 28 28 27 28 29 30 29 30 30 29 29 29 29 29 29 29 30 30 30 30 29 28 28 28 28 29 29 30 32 31 28 26 28 30 32 30 29 32 32 32 31 30 31 31 30 30 28 27 28 24 23 29 31 31 30 28 24 22 22 23 25
38 37 37 37 37 36 36 36 36 36 35 35 35 35 34 34 34 33 33 33 32 32 32 31 31 30 30 28 27 26 26 29 30 29 28 29 28 28 28 28 28 28 28 29 29 29 30 29 28 29 28 27 28 29 30 32 32 29 26 28 30 32 31 30 32 32 33 32 32 33 32 31 32 29 26 24 22 26 31 31 31 30 28 25 23 24 25 26
38 38 38 38 38 37 37 36 36 36 35 35 34 34 33 33 33 32 33 32 32 32 32 32 31 30 30 28 27 24 24 29 30 28 27 27 27 28 28 28 28 27 28 28 29 29 30 30 30 31 29 28 28 28 31 32 32 30 28 28 29 31 31 31 31 32 33 33 34 35 34 32 34 30 22 19 21 28 32 31 31 31 29 28 26 27 28 28
37 37 36 36 36 36 35 35 34 34 34 33 33 33 32 32 32 32 32 32 32 32 32 32 31 31 29 27 26 22 24 31 31 29 28 28 29 29 29 28 28 28 29 29 30 30 31 32 32 33 31 29 29 29 31 33 32 31 31 30 29 30 30 30 30 31 33 33 35 37 36 34 34 29 18 14 21 29 33 31 31 32 31 31 30 29 30 30
34 34 34 34 34 34 33 33 33 33 33 33 32 32 32 32 32 32 32 32 32 32 32 33 32 32 30 29 28 23 27 34 32 31 31 31 31 30 30 30 29 29 29 30 31 32 33 34 34 34 34 32 30 30 32 33 33 33 33 31 29 30 29 28 29 30 33 34 35 39 38 34 31 26 15 12 24 31 33 32 31 32 32 33 33 32 32 31
33 33 33 33 33 33 33 33 32 32 32 33 33 33 33 32 33 33 33 33 34 34 34 35 35 34 33 32 28 25 30 36 34 33 33 33 32 31 31 30 30 31 31 32 34 35 36 37 37 37 36 35 32 32 33 34 35 34 35 33 30 31 29 26 28 30 32 34 36 40 41 33 28 22 15 16 25 31 33 32 30 31 32 34 34 33 33 31
34 34 34 34 34 34 34 33 33 33 34 34 35 35 35 35 35 35 35 36 36 37 37 38 38 37 37 33 28 28 33 35 34 35 35 35 34 33 32 31 32 33 33 35 35 35 37 38 39 38 38 37 34 34 35 35 37 36 37 37 31 32 30 24 27 31 33 36 36 41 43 34 25 20 17 20 27 31 34 33 31 31 32 33 33 33 32 31
37 37 37 37 36 36 36 36 35 36 36 36 37 37 37 37 37 38 38 39 39 39 40 41 41 41 41 35 29 33 35 34 35 37 38 38 36 34 34 34 34 35 35 35 35 35 37 38 39 39 38 37 34 35 37 37 38 37 38 40 35 35 31 22 28 33 34 37 37 42 46 38 26 20 20 25 29 33 35 33 32 32 33 32 31 31 31 30
40 40 40 39 39 39 39 38 38 38 38 38 39 39 40 39 40 39 40 41 41 41 42 43 43 43 43 36 31 34 36 35 37 38 41 40 37 36 36 36 36 36 36 36 36 37 38 39 40 39 37 36 35 36 38 38 37 36 38 40 37 39 34 26 30 35 35 37 38 43 49 44 32 22 21 27 31 34 36 34 33 34 34 32 30 30 30 30
42 42 42 42 41 41 41 41 40 40 40 40 40 41 41 41 41 41 41 41 42 42 42 43 43 44 44 37 32 34 35 36 38 40 42 40 38 38 37 37 37 37 37 37 38 39 40 41 41 41 39 36 36 38 40 40 36 35 39 40 37 41 41 33 33 35 35 38 41 45 50 49 40 28 23 29 34 36 38 36 34 35 35 34 32 31 30 30
45 44 44 44 43 43 43 43 43 42 42 42 42 43 43 43 42 42 42 41 42 43 43 44 43 44 46 39 33 34 36 38 40 41 41 40 39 38 38 39 38 38 39 39 40 40 41 43 44 43 40 37 36 39 42 42 37 34 40 43 40 43 44 39 32 31 35 40 44 48 51 51 45 35 29 31 35 38 40 37 34 34 35 35 33 33 32 31
47 47 46 46 46 45 45 45 45 44 44 44 44 44 44 44 43 43 43 42 43 44 45 45 44 46 48 41 37 36 37 40 42 42 41 41 40 39 40 40 40 40 41 41 41 41 43 46 46 45 41 37 36 40 44 43 38 36 42 46 46 45 44 42 34 28 32 39 44 49 52 50 46 42 37 35 36 39 40 37 34 34 33 33 34 34 33 33
48 48 48 48 47 47 47 46 46 46 45 45 45 44 45 46 45 45 45 44 45 46 47 47 46 49 49 44 41 39 37 39 42 42 42 41 41 41 42 42 42 42 43 43 43 43 46 48 48 47 43 36 36 41 45 43 40 42 46 48 48 46 44 43 37 30 31 39 44 48 50 48 45 43 40 37 37 39 39 36 34 33 33 33 34 34 33 34
50 50 49 49 49 49 48 48 48 47 46 46 46 46 46 47 47 47 47 47 48 48 50 50 49 51 51 46 45 43 40 39 41 41 41 41 42 43 43 44 44 45 45 45 44 46 49 50 51 50 42 35 36 42 45 44 44 48 50 49 49 47 46 42 39 35 37 43 46 47 49 47 45 42 39 36 36 38 36 34 33 33 33 34 35 34 33 33
52 51 51 51 51 51 50 50 50 49 48 48 48 48 48 49 49 50 50 50 50 51 52 52 52 52 51 49 48 47 44 42 40 39 39 40 42 44 46 46 47 48 47 46 47 49 51 52 53 49 40 35 39 44 46 46 47 50 51 51 50 49 47 43 41 39 41 48 48 46 48 46 45 43 40 37 36 34 32 31 33 34 35 36 35 33 32 33
53 53 53 53 53 53 52 52 52 51 51 50 50 51 51 52 52 53 53 53 53 53 53 54 54 53 50 50 50 49 47 44 41 38 38 38 40 43 45 46 49 50 48 48 50 51 52 54 52 45 38 39 44 45 47 48 50 51 51 52 51 50 48 45 44 42 44 50 48 46 48 45 43 43 40 38 37 35 31 29 31 32 34 35 33 32 32 33
55 55 55 55 55 55 54 54 54 54 53 53 53 53 54 54 55 56 57 56 54 54 55 54 55 54 52 52 52 51 51 47 42 39 39 38 39 41 43 45 48 49 50 51 52 51 53 55 50 42 41 45 47 46 48 50 51 51 51 52 52 50 49 48 47 45 47 50 49 48 48 46 42 40 38 36 35 35 32 28 28 28 29 29 29 30 31 32
57 57 57 57 57 57 57 56 56 56 56 56 55 56 56 57 57 58 59 60 56 54 54 55 55 56 55 53 53 52 52 48 45 43 41 41 41 41 43 45 47 49 51 52 51 52 55 54 47 44 47 47 47 47 49 51 52 52 51 52 52 50 50 52 49 47 48 50 50 48 48 47 43 37 35 32 30 32 32 30 29 28 26 25 26 29 31 31
59 59 59 59 59 59 58 58 58 58 58 58 58 58 59 59 59 60 60 61 60 56 54 55 57 57 55 54 53 52 51 50 48 46 44 44 43 43 44 46 48 50 50 49 49 53 55 53 48 48 48 48 48 49 49 50 51 52 51 52 52 50 51 52 51 50 49 49 49 48 48 46 41 35 30 27 27 30 33 31 28 27 27 26 26 27 30 32
59 60 60 61 61 61 61 61 60 60 60 60 60 60 60 60 60 60 61 62 63 59 56 55 56 56 54 53 51 51 52 51 50 48 46 46 44 44 46 47 49 49 47 46 49 53 54 51 48 48 48 48 49 50 49 49 50 52 51 50 50 50 51 51 50 51 51 49 48 49 48 43 37 33 27 24 27 29 29 27 24 24 26 26 24 26 28 30
59 60 60 60 60 61 62 62 62 63 62 62 62 62 61 61 60 61 61 63 64 61 59 58 56 54 53 52 51 51 53 53 51 50 50 48 47 47 48 48 48 47 46 47 49 53 52 46 45 47 48 49 50 51 48 45 49 54 51 47 47 49 50 49 49 50 51 51 50 50 51 46 39 35 30 28 31 30 26 24 22 20 22 23 22 23 27 29
60 60 60 61 61 62 62 62 63 64 63 63 63 63 63 62 61 60 60 62 65 64 63 62 59 56 54 53 53 53 54 53 52 51 50 48 47 46 47 47 46 45 46 48 51 53 49 44 44 46 48 51 52 50 45 43 50 54 50 47 48 48 49 49 49 50 51 51 51 51 53 51 43 39 37 37 37 34 28 25 21 17 17 20 21 21 25 27
56 56 57 59 60 62 62 62 63 64 64 64 63 63 63 62 61 58 57 61 66 66 65 63 61 60 58 56 56 55 54 53 51 51 49 48 47 46 46 45 44 45 46 49 53 52 49 47 47 47 50 52 51 48 46 46 50 51 50 49 50 49 49 48 48 50 51 51 53 54 53 51 45 42 45 47 44 39 33 29 25 21 20 22 25 27 27 26
51 52 52 53 53 54 55 57 59 60 62 62 62 62 61 60 60 57 57 62 67 67 66 64 63 63 61 60 60 58 57 55 52 51 49 48 48 48 47 46 47 48 49 51 54 53 51 51 50 51 52 51 50 49 49 49 49 49 50 51 50 49 49 49 49 50 52 53 54 55 52 50 46 43 47 52 49 44 42 38 35 32 29 28 29 31 32 32
50 50 50 50 49 47 47 48 50 51 52 55 58 60 60 60 59 59 62 65 66 66 65 64 65 65 64 63 62 60 58 56 54 52 50 49 49 49 50 49 49 50 51 53 55 53 53 53 54 54 53 51 51 51 51 51 50 50 50 50 50 51 50 51 52 52 55 55 54 53 49 48 49 47 48 52 53 52 51 49 48 46 43 38 35 34 36 39
49 49 49 50 49 49 46 44 45 46 47 48 52 55 57 58 58 59 61 61 61 62 61 62 64 64 63 63 61 58 57 55 54 52 52 52 51 52 51 51 52 52 53 54 54 53 54 55 56 55 54 54 54 53 52 52 52 52 51 50 50 51 52 54 55 56 57 55 52 52 49 48 53 53 52 54 57 59 59 58 58 57 54 51 46 43 43 42
51 52 52 51 50 50 49 46 46 47 49 49 50 53 55 58 58 57 56 55 56 58 56 57 61 60 59 58 57 56 55 55 54 54 53 53 53 53 54 54 54 55 55 54 54 54 54 55 56 56 55 54 53 53 52 52 51 50 50 50 50 52 54 57 58 57 57 54 53 53 52 55 59 59 57 57 57 61 63 65 65 63 60 61 60 57 53 48
54 54 54 53 52 51 51 50 48 47 49 51 51 50 50 54 56 55 54 54 55 56 53 54 56 56 55 54 54 54 54 55 56 56 55 54 54 54 54 55 54 55 56 54 54 54 53 53 54 55 54 52 52 52 52 51 49 49 49 49 50 52 56 59 59 58 58 57 56 57 58 64 65 61 60 60 60 62 65 68 69 67 64 64 65 65 62 57
55 55 54 54 53 52 51 51 51 49 49 51 51 48 47 51 55 55 55 56 57 57 56 55 56 57 57 56 55 55 55 57 56 56 56 55 54 52 51 52 52 53 55 55 54 54 54 51 50 51 52 50 51 52 51 51 50 50 50 51 53 55 57 59 58 58 59 58 58 60 64 69 69 67 67 67 68 69 70 71 70 70 69 69 67 66 66 63
54 53 53 52 51 50 49 50 51 51 52 53 54 54 54 56 57 55 55 55 55 56 56 56 57 59 59 59 58 58 59 59 57 55 56 55 53 50 48 48 49 49 51 53 52 52 55 53 49 53 54 53 53 53 52 53 53 53 53 54 57 55 54 57 57 57 59 61 64 68 72 74 74 74 73 72 73 73 72 73 72 72 72 72 70 68 67 66
55 54 54 52 52 52 53 53 54 55 55 57 59 61 61 61 58 56 56 56 56 55 54 54 55 57 59 61 62 62 62 62 60 58 57 56 55 51 50 50 50 49 51 52 52 53 56 54 50 54 57 56 57 57 57 58 59 59 60 60 60 58 58 61 63 63 63 67 72 74 77 78 77 78 76 74 74 74 73 73 73 73 73 72 72 70 69 69
59 58 57 56 57 59 61 60 61 62 62 64 66 65 63 63 60 59 60 59 59 59 59 59 57 57 59 60 61 63 65 65 65 64 63 63 62 58 56 56 55 55 54 54 55 57 60 61 58 58 61 61 62 63 64 66 67 68 69 67 65 64 65 65 67 68 68 72 75 75 77 79 78 80 80 77 74 73 72 73 72 73 72 71 71 71 72 71
65 66 66 65 66 67 66 66 66 67 67 69 72 70 67 67 65 64 65 63 63 64 65 66 64 62 62 61 60 62 64 66 66 66 66 67 67 64 63 62 61 61 60 59 62 63 64 67 66 65 67 68 67 69 71 73 74 74 72 70 66 65 66 67 69 71 71 75 78 78 79 80 81 82 82 78 73 71 71 72 72 71 71 71 70 70 71 71
71 72 72 70 69 68 67 67 67 67 69 73 76 74 72 71 70 69 69 67 66 66 67 67 67 66 66 65 64 65 67 68 68 67 67 67 68 67 66 66 66 66 65 65 68 68 69 72 73 72 73 74 73 73 75 73 71 69 68 68 68 68 70 71 71 72 72 74 77 78 79 79 78 78 77 74 72 70 71 71 70 70 69 69 69 69 69 70
70 71 70 68 66 65 65 66 66 68 71 73 74 75 75 74 72 71 69 67 66 67 67 67 67 68 67 67 67 69 71 73 72 72 71 70 70 69 69 70 70 69 70 69 68 67 67 67 68 67 67 70 70 70 68 66 65 67 69 70 71 72 71 68 67 66 67 71 74 76 77 74 68 69 74 76 74 71 70 70 69 69 68 67 68 68 69 69
69 69 67 66 64 63 63 66 67 69 71 71 72 72 72 71 70 69 68 68 67 67 67 67 67 68 68 67 68 69 72 74 74 74 74 72 71 70 71 71 69 67 67 64 62 61 61 62 65 65 66 68 70 71 72 72 73 75 76 75 74 71 66 64 65 63 63 68 71 73 78 75 67 66 73 76 74 72 71 69 69 69 69 68 68 69 68 68
68 68 66 65 64 64 64 66 68 69 71 71 70 70 69 68 69 69 69 69 68 68 68 68 68 68 68 68 68 69 71 72 73 74 74 73 72 70 70 70 68 67 66 64 64 64 65 67 70 70 67 67 70 74 77 79 80 80 79 78 74 70 66 65 68 67 67 71 72 74 80 80 73 70 73 73 71 71 73 74 74 74 73 74 73 71 70 70
69 67 66 65 65 64 66 68 70 70 71 70 68 68 68 69 69 69 70 71 71 70 70 69 68 68 68 68 69 70 71 73 74 73 73 74 74 72 70 70 68 67 67 68 69 68 67 69 71 70 69 69 71 73 76 79 81 80 78 75 70 66 64 66 69 68 68 70 71 74 81 82 78 74 72 69 66 66 69 71 73 74 74 75 74 72 71 71
69 68 66 65 65 66 68 70 70 71 70 68 67 68 68 69 70 69 69 70 71 71 71 71 70 69 69 69 70 71 72 73 75 75 74 75 76 74 72 71 70 69 68 68 69 69 70 72 73 73 75 78 79 79 80 81 80 77 75 73 71 70 70 72 73 72 72 73 71 75 81 80 77 73 69 68 68 68 69 69 70 71 72 73 73 74 74 73
70 69 68 66 66 66 67 67 67 68 69 68 68 67 66 67 68 67 67 69 69 70 70 71 70 70 70 71 72 73 73 74 75 76 75 75 75 75 73 73 73 73 72 71 70 70 71 72 72 72 75 77 81 83 82 79 77 76 75 74 75 76 76 78 79 79 81 80 76 79 82 79 74 71 69 69 68 67 67 66 66 65 65 67 69 71 73 73
71 71 70 69 68 68 67 65 65 67 67 67 68 68 66 66 65 64 65 67 68 69 70 70 70 70 72 73 74 75 74 74 75 76 76 75 75 75 75 75 75 75 74 73 72 71 71 72 74 75 77 78 80 81 80 78 78 80 80 80 80 79 79 80 82 84 85 86 87 88 87 86 83 79 77 76 73 71 69 69 68 66 65 68 71 72 72 73
70 70 69 69 70 70 68 67 66 67 66 65 68 68 66 66 66 65 65 66 67 68 69 70 70 71 73 74 74 76 75 75 76 77 77 77 77 77 77 77 77 78 77 76 76 75 74 76 78 79 80 80 80 80 79 79 81 82 82 83 82 81 82 82 85 87 85 88 93 91 89 91 92 89 88 87 85 84 83 82 82 82 83 85 86 84 83 83
69 69 68 69 70 70 69 68 67 67 66 66 68 68 66 65 66 66 66 67 67 67 69 70 70 70 71 72 73 75 76 75 76 76 76 77 78 78 77 77 79 79 79 79 79 78 77 77 77 77 79 77 76 76 77 78 80 80 80 79 78 79 80 82 85 86 84 86 89 86 84 87 87 84 84 84 84 85 85 85 87 89 91 93 94 93 94 94
68 68 68 69 69 68 68 69 68 68 67 67 69 69 67 66 66 66 66 67 68 68 68 70 70 70 70 71 72 73 74 74 75 75 75 75 76 77 77 76 77 77 77 78 78 77 75 74 73 74 76 76 75 75 75 75 76 77 76 76 75 76 77 80 83 82 81 82 83 81 81 82 80 78 78 77 77 78 79 79 80 81 84 86 89 91 93 96
69 69 68 68 68 67 67 68 68 68 68 67 68 68 66 66 66 65 66 67 67 67 68 69 71 71 70 71 71 72 72 71 72 73 73 72 73 72 72 72 71 71 71 72 72 72 72 73 73 73 75 75 73 71 70 69 70 71 72 71 70 72 74 76 77 77 77 79 79 79 79 79 78 79 79 78 76 74 72 70 69 70 72 74 77 80 83 88
71 71 70 69 69 67 67 67 67 68 68 67 68 67 66 66 66 66 66 66 66 67 67 68 70 70 69 69 69 69 67 64 64 64 63 63 62 60 60 62 61 61 62 63 64 65 66 68 68 69 72 73 68 65 64 63 64 65 66 69 72 73 72 72 71 71 72 76 77 77 76 76 77 78 78 76 74 72 70 69 68 68 69 69 70 71 73 76
73 73 73 73 72 70 69 69 68 68 69 67 68 68 67 67 67 66 66 66 67 67 66 67 68 69 68 68 68 68 66 64 65 66 65 65 64 61 61 63 63 63 64 64 66 67 68 69 67 66 70 71 66 64 65 66 68 69 65 66 69 68 66 66 65 64 64 67 72 75 76 76 77 77 76 75 74 72 71 71 71 71 70 70 70 70 70 72
Wind_Direction
261 262 263 265 267 268 270 272 274 275 277 279 280 281 281 281 281 282 282 282 283 284 284 285 286 287 289 290 292 293 293 294 293 291 293 296 294 294 296 296 296 297 297 298 299 299 299 300 299 299 299 298 298 298 298 297 297 298 299 300 296 295 297 298 296 295 295 295 296 295 296 297 294 294 295 296 295 296 296 291 290 294 293 294 298 302 303 304
261 263 264 266 267 269 270 271 273 274 275 277 278 278 279 280 280 281 281 281 282 282 282 283 283 284 285 287 289 290 292 292 291 290 293 294 293 294 294 294 295 295 296 296 296 297 297 296 296 296 295 295 295 295 295 293 294 295 296 297 291 291 296 294 292 292 292 292 291 290 291 292 289 289 293 294 292 294 294 284 283 287 286 287 291 295 296 298
261 263 264 265 267 268 269 270 271 272 273 274 275 276 277 277 278 279 279 280 280 280 281 281 281 282 282 283 285 287 288 289 289 289 291 292 292 292 293 293 293 294 295 294 294 295 294 294 294 294 293 293 293 293 293 291 291 293 295 293 288 290 294 290 289 290 290 289 288 287 288 288 287 288 291 290 290 296 290 276 277 284 284 283 285 288 291 292
261 262 264 265 266 267 268 269 270 271 272 273 273 274 274 275 276 276 277 277 278 278 279 279 279 280 280 281 282 283 284 285 285 287 288 288 289 290 291 291 292 292 293 293 293 292 292 292 292 292 291 291 291 292 291 289 289 293 294 290 287 289 290 288 288 288 289 288 287 286 286 286 285 287 289 288 291 293 277 270 276 282 282 283 285 285 285 285
262 263 264 265 266 267 268 269 270 271 272 273 273 273 274 274 274 274 275 275 276 276 276 277 277 278 278 279 280 281 282 282 283 284 284 284 285 286 287 288 288 289 290 290 291 290 290 290 290 290 289 289 290 291 289 287 289 293 292 289 287 287 288 288 287 288 287 286 286 284 283 284 283 285 287 289 292 283 268 270 279 283 283 285 286 283 281 280
263 264 265 266 266 267 268 269 270 271 272 273 273 274 274 274 274 274 274 274 274 275 275 275 275 275 276 276 277 278 281 282 281 281 282 282 283 284 285 286 287 287 288 288 289 290 290 290 290 288 287 289 291 292 291 290 292 295 293 289 286 287 289 287 286 288 287 286 286 283 282 282 281 284 287 291 293 279 270 273 279 283 284 283 281 277 274 272
263 264 265 266 267 267 268 269 270 271 272 272 273 273 273 274 273 274 274 274 274 274 275 275 275 275 275 276 276 278 281 280 279 279 281 282 283 284 285 286 287 288 288 288 289 290 290 292 291 288 289 292 293 293 293 292 294 297 295 289 286 288 290 287 285 288 287 288 286 283 283 282 282 284 289 295 291 277 273 276 279 282 282 279 273 269 266 266
262 263 264 265 266 267 268 269 270 270 271 271 271 272 272 272 273 273 273 274 274 274 275 275 275 275 275 276 277 279 282 279 278 280 281 282 284 284 285 285 287 289 289 289 291 291 292 292 290 289 291 292 292 293 292 291 293 296 293 289 289 290 289 287 287 287 286 287 285 283 282 281 282 286 294 299 285 273 274 278 280 281 280 277 270 266 266 266
261 261 262 264 265 265 266 267 268 269 269 270 271 271 271 272 272 273 273 273 273 274 275 274 275 275 276 277 277 282 283 278 279 282 283 284 284 284 284 285 287 288 288 290 290 290 290 289 289 290 290 289 289 290 288 289 291 292 290 289 290 289 288 288 289 288 285 284 282 280 279 279 282 288 303 302 277 271 275 278 280 281 280 277 272 268 267 267
259 259 260 261 262 263 264 265 266 267 268 269 270 270 271 272 272 273 273 273 273 273 274 274 274 274 276 276 278 285 281 277 280 283 284 284 282 282 282 284 286 286 287 289 289 289 288 288 289 288 288 287 288 287 286 288 289 289 288 289 290 288 288 290 290 287 283 281 279 278 278 279 283 291 308 292 271 272 276 279 281 282 281 278 275 270 268 267
258 259 259 259 260 261 262 263 265 266 267 268 269 270 271 271 272 273 274 274 275 275 275 275 275 275 275 276 280 282 276 277 282 283 282 281 279 280 281 283 284 285 287 289 288 288 288 287 287 286 286 286 287 287 286 287 287 287 288 288 289 287 288 292 289 283 279 277 277 278 280 283 287 295 301 279 270 274 278 282 284 283 281 279 278 274 270 268
259 259 260 260 260 261 262 262 264 265 266 267 268 269 270 271 272 273 273 274 275 276 276 276 276 276 276 277 281 279 275 279 283 283 281 278 278 279 281 282 283 285 287 288 287 287 287 286 286 286 286 286 287 287 285 286 286 287 288 287 287 286 288 292 286 279 276 275 277 280 282 285 289 293 292 278 272 276 279 283 285 284 282 282 282 278 274 270
261 261 262 262 262 263 263 263 264 265 266 267 268 268 269 270 271 272 273 274 274 275 276 276 276 276 276 277 280 277 277 280 280 281 279 277 279 280 281 280 281 283 285 285 285 285 285 285 286 285 286 288 289 288 287 286 285 287 287 286 287 285 285 286 278 273 275 280 283 283 284 286 286 285 284 278 275 278 281 284 285 284 284 285 286 284 279 275
262 262 263 264 264 264 264 265 265 265 266 266 267 268 269 270 270 271 272 272 273 274 274 274 275 275 275 276 276 275 277 277 276 275 274 276 278 278 278 278 279 281 282 281 282 283 283 284 284 284 286 288 290 290 289 288 288 291 289 288 290 284 279 273 268 272 279 284 286 283 284 286 284 280 279 276 275 278 281 283 284 284 286 288 289 289 286 283
262 262 263 264 264 265 265 265 265 266 266 266 267 267 268 268 269 269 269 270 271 272 272 272 273 274 274 275 275 275 275 275 273 272 273 275 276 275 275 275 276 278 278 279 279 280 281 282 282 283 285 287 290 290 289 289 291 296 293 290 288 282 278 274 271 278 284 284 283 281 282 284 284 281 275 272 274 277 279 281 283 285 287 289 290 291 290 287
262 262 263 263 264 264 265 265 266 266 266 266 266 266 267 267 267 267 267 268 269 270 271 271 272 273 274 275 276 275 274 272 272 272 273 274 273 273 274 274 274 275 276 277 277 278 280 281 281 282 283 286 289 290 289 290 295 297 291 287 284 281 283 286 285 286 287 284 282 280 280 282 284 284 276 270 273 275 278 280 282 284 286 288 290 290 288 285
262 262 263 263 263 264 264 265 265 265 265 265 265 266 266 266 266 266 267 268 268 269 270 271 272 272 274 277 278 276 274 272 271 271 271 272 273 273 273 273 273 274 275 275 275 277 279 279 280 280 281 284 289 290 290 292 295 291 284 282 283 284 289 292 295 294 289 284 282 280 280 282 284 284 279 273 274 277 279 281 282 282 284 285 286 285 284 281
262 262 263 263 263 264 264 264 264 265 265 265 264 265 265 266 266 267 268 268 269 270 270 271 273 274 276 279 280 279 276 273 271 269 269 271 272 272 272 272 273 273 274 274 275 276 277 277 278 277 279 285 290 289 287 289 289 284 281 281 283 287 289 292 295 298 291 285 283 283 284 287 287 284 282 279 277 278 281 283 284 283 281 279 278 279 280 278
263 263 263 264 264 264 264 265 265 265 265 265 265 264 265 266 267 268 268 269 270 271 272 272 273 274 277 279 280 280 277 273 272 271 270 270 271 272 273 273 273 273 272 273 274 274 273 274 275 276 280 288 288 283 282 283 283 282 282 283 285 287 287 290 294 296 293 287 284 285 287 289 290 290 290 287 282 280 283 285 284 281 278 275 274 276 278 278
264 264 264 264 265 265 265 265 265 265 265 266 266 266 266 266 268 269 270 271 272 272 273 274 274 274 277 280 280 279 277 273 273 274 275 273 272 272 271 272 272 272 271 272 272 271 271 272 274 277 285 288 281 277 277 279 280 281 282 284 285 285 286 290 292 293 293 287 284 286 287 288 291 292 294 293 290 289 290 287 281 278 276 274 275 277 278 277
264 264 264 264 265 265 265 265 265 265 265 265 266 266 267 267 268 269 270 271 273 274 274 275 276 276 278 279 279 279 278 275 276 278 279 276 273 271 271 271 271 271 271 270 269 270 272 273 275 280 284 279 273 273 276 278 279 280 281 283 283 284 286 288 289 291 289 285 285 288 287 287 288 290 293 295 298 299 298 291 283 279 277 278 280 279 276 273
263 264 264 264 265 265 265 265 266 266 266 265 266 266 267 268 269 270 271 271 271 273 275 276 277 278 279 278 279 279 278 279 280 280 278 276 275 274 273 271 270 269 268 267 268 270 271 272 275 279 275 271 271 274 275 276 277 278 280 281 282 285 286 286 287 288 286 284 285 287 287 286 287 289 293 297 300 300 299 294 289 286 284 285 285 280 274 272
264 264 264 264 264 264 264 265 265 266 266 266 266 266 267 268 270 271 272 272 271 271 273 275 276 277 277 277 277 278 279 281 280 279 278 277 276 274 272 271 269 267 265 265 267 269 270 272 273 272 270 270 273 273 273 274 276 277 279 281 282 285 287 286 286 287 285 284 285 287 285 284 287 290 294 299 301 298 296 295 295 295 295 292 286 280 276 272
265 265 265 265 265 265 265 265 265 265 265 266 266 267 267 268 269 270 271 272 272 271 272 273 274 274 274 275 276 278 280 280 279 279 278 276 274 272 271 270 268 267 267 267 268 268 269 270 271 270 271 272 272 271 272 273 274 276 278 280 282 285 285 285 287 288 285 284 286 288 285 282 286 290 295 301 297 291 292 294 299 302 300 295 287 283 280 275
265 265 265 265 265 265 265 265 265 265 265 266 266 267 268 268 269 270 271 272 273 273 273 272 271 272 273 274 276 278 280 280 280 280 278 275 274 271 270 268 267 268 269 267 266 266 267 268 270 272 272 271 271 270 270 271 274 276 276 278 280 282 283 283 286 287 285 285 287 288 285 282 285 290 295 299 289 284 288 294 301 301 297 295 290 285 282 278
265 265 265 265 266 266 266 265 265 265 265 265 266 267 267 268 270 271 272 273 273 274 274 272 270 271 272 274 276 278 279 280 280 279 278 276 274 271 270 268 268 269 268 267 265 265 266 268 270 270 270 270 270 270 270 272 275 275 275 277 278 280 281 283 284 284 285 286 287 286 284 283 287 290 293 293 286 284 292 301 304 298 292 292 289 285 283 282
265 265 264 265 265 265 266 266 266 266 265 265 266 266 266 267 269 270 272 273 272 273 273 273 272 272 272 273 274 275 276 277 277 277 276 275 273 271 270 269 268 267 265 265 264 265 267 268 267 267 268 269 269 271 272 272 272 273 275 277 277 277 279 281 282 283 283 284 283 282 282 286 291 293 293 290 284 285 296 305 306 297 290 290 290 287 284 282
263 263 263 263 264 265 265 265 266 266 266 266 266 266 266 266 267 269 271 271 271 272 272 274 275 275 275 274 274 275 275 275 275 274 273 272 271 270 269 268 267 265 264 263 264 266 267 267 266 266 266 268 270 272 271 268 269 273 275 275 275 276 277 279 280 281 281 281 279 279 282 288 290 291 292 289 283 285 293 299 299 293 290 292 293 291 287 283
262 262 262 263 264 265 266 266 267 267 267 266 265 265 265 265 266 268 269 269 270 271 273 275 276 276 276 276 276 276 276 276 274 272 270 268 267 266 266 266 265 264 264 264 264 266 267 267 267 266 267 268 270 269 267 267 269 272 272 273 275 276 276 277 276 277 277 277 278 281 287 292 289 284 285 284 285 288 290 293 294 291 290 291 290 289 289 289
264 264 264 265 265 267 270 270 271 271 271 269 267 266 266 266 267 268 267 268 270 272 274 276 275 275 275 276 276 276 275 274 272 271 269 267 265 264 264 264 264 264 264 264 265 266 267 267 267 267 267 268 267 265 266 268 269 270 270 272 273 274 275 275 274 274 274 276 280 285 290 291 287 281 280 283 288 290 291 294 295 292 291 288 285 285 286 288
267 266 266 268 267 267 268 270 273 273 273 273 272 270 269 268 267 266 267 270 272 273 274 274 274 274 274 275 275 275 273 271 269 267 266 265 264 263 263 263 263 263 263 264 266 266 266 267 267 266 266 265 265 265 266 267 267 268 268 269 269 270 271 272 272 272 273 278 285 288 288 285 280 278 278 282 287 292 295 297 296 295 295 293 289 286 285 283
265 265 267 269 268 267 266 265 268 271 272 272 273 273 271 269 267 266 269 272 274 273 273 273 272 272 272 271 272 272 271 270 269 267 265 264 263 263 263 263 264 265 264 264 265 265 265 266 265 264 263 263 264 266 266 266 266 265 265 266 267 268 270 271 272 272 275 280 285 285 283 278 274 275 277 280 285 291 294 295 294 295 296 297 295 292 289 286
264 265 266 267 266 266 265 263 264 267 272 272 270 269 267 266 267 268 269 271 272 274 275 273 271 269 268 268 269 270 272 272 270 269 267 265 262 261 262 264 267 268 267 266 264 264 264 264 264 264 263 263 264 265 266 265 265 264 265 266 266 268 269 270 272 276 279 282 282 280 277 274 274 278 281 283 285 287 288 290 292 294 295 295 294 293 292 291
264 264 265 265 265 265 265 265 264 263 266 266 264 262 260 261 265 268 268 269 271 273 274 273 271 269 269 269 269 271 273 273 271 270 269 267 264 262 262 264 265 267 268 267 265 265 265 264 262 261 260 260 262 264 265 265 264 265 267 267 266 269 271 273 276 279 280 278 276 274 273 274 279 283 285 286 287 287 287 288 289 292 293 293 292 291 291 291
261 262 262 263 264 264 264 264 263 262 261 261 261 259 258 260 264 266 268 269 270 270 271 271 271 270 269 269 270 271 272 272 270 269 269 268 266 265 264 263 264 265 267 267 266 266 265 264 263 262 260 259 261 262 263 263 264 265 267 268 270 273 274 275 275 275 274 273 272 273 273 275 279 282 283 285 286 287 287 288 289 290 291 291 290 290 290 290
259 260 261 262 263 266 266 264 264 264 262 263 263 260 258 259 261 263 265 266 268 269 269 270 270 270 269 268 268 270 271 270 268 267 267 268 267 266 267 268 267 267 268 268 268 267 266 264 262 263 263 262 263 263 263 264 266 268 269 271 274 276 274 273 273 271 271 271 271 273 275 277 279 280 281 283 285 286 287 287 288 288 287 287 288 288 288 289
262 262 263 264 267 269 270 269 268 268 267 267 266 262 260 261 261 263 265 265 267 269 270 270 269 269 269 268 268 269 270 269 267 266 266 266 266 266 267 268 268 268 268 269 269 268 268 267 264 265 266 265 264 265 266 267 270 273 275 276 277 275 273 274 274 274 272 271 272 273 275 277 278 280 282 284 285 286 286 285 284 283 283 283 284 285 286 287
265 266 266 268 270 272 271 271 270 270 269 268 267 264 263 264 265 267 269 269 269 269 269 269 269 268 268 268 267 266 267 267 268 267 266 266 265 265 266 267 267 267 267 268 269 269 270 270 269 267 267 268 266 267 269 270 273 277 278 277 274 273 274 274 275 275 274 275 276 276 276 276 276 280 284 285 286 285 283 282 282 282 282 283 284 284 285 285
267 268 268 269 270 270 270 269 269 268 267 267 268 267 266 267 268 270 272 272 271 270 269 269 269 268 267 266 266 264 264 265 266 267 267 266 265 265 266 267 267 267 268 269 271 272 274 275 273 270 270 272 271 270 270 271 273 275 276 275 274 275 276 276 275 275 275 275 276 276 275 274 277 281 284 284 284 282 280 279 279 279 281 282 283 282 281 281
270 270 269 269 269 268 267 267 266 266 266 267 268 269 269 269 269 270 271 271 271 271 270 270 269 269 268 267 265 264 263 264 266 267 268 268 267 267 266 267 268 269 271 273 276 279 280 280 278 274 270 269 270 270 270 270 270 271 273 275 276 278 278 277 274 272 273 272 271 271 270 271 276 281 284 285 284 281 279 278 277 278 279 278 279 279 279 279
272 272 271 270 269 268 267 266 265 265 266 267 268 269 270 270 269 270 270 270 270 270 270 269 269 269 270 268 267 266 265 265 266 267 268 269 268 268 268 268 270 271 273 275 278 278 277 276 275 273 269 267 268 270 270 270 270 272 274 276 276 276 275 272 271 271 272 272 272 272 271 272 273 275 279 282 281 280 279 278 277 277 277 278 280 281 280 279
272 273 273 272 271 270 268 267 266 267 267 267 269 270 270 270 269 269 269 268 268 268 268 268 268 269 269 269 269 268 267 266 266 267 268 268 268 268 268 268 270 271 272 272 271 271 272 272 274 275 273 271 270 270 271 271 272 273 274 275 276 275 273 271 273 276 277 276 276 275 274 273 273 275 277 278 276 276 276 276 277 278 279 280 281 280 278 277
272 272 273 272 272 271 270 269 270 270 269 270 270 270 270 269 269 268 268 268 268 268 268 268 268 268 268 268 268 267 268 268 267 267 268 269 269 269 269 269 270 270 270 270 271 271 271 271 272 273 272 271 269 269 269 271 272 273 274 275 276 274 274 275 277 279 278 275 275 274 272 273 276 277 277 276 275 274 274 274 276 278 279 280 280 278 274 272
273 273 272 271 271 269 269 271 273 273 273 272 270 269 269 269 269 269 269 269 269 269 269 269 269 268 268 268 267 267 268 269 269 268 268 269 270 270 271 272 272 272 271 271 271 270 270 270 271 272 272 271 270 269 270 271 273 273 274 274 272 272 273 274 276 277 275 273 273 271 270 272 276 277 275 275 276 275 274 272 271 271 273 273 273 272 269 268
273 272 272 271 269 268 268 270 271 271 271 271 271 270 269 268 269 269 269 269 269 269 269 269 269 269 268 268 267 267 266 267 269 269 269 270 270 270 271 272 272 272 272 272 271 271 271 271 271 271 271 272 273 273 274 276 276 274 273 272 271 271 271 272 273 273 272 272 272 270 271 274 275 274 273 274 274 272 270 269 267 266 266 266 265 264 264 265
271 271 271 270 269 268 269 269 268 267 268 269 269 269 268 269 269 268 267 267 267 268 268 268 268 268 267 267 267 267 266 267 268 269 269 269 269 269 269 269 270 271 271 272 272 272 271 270 270 270 271 272 274 275 276 277 276 275 275 274 273 273 272 272 271 270 271 273 272 271 273 275 274 273 274 274 273 271 270 269 267 265 264 265 265 264 264 264
270 270 270 270 269 269 270 270 268 268 268 267 267 267 267 268 268 267 266 266 266 266 266 266 266 266 267 267 267 267 267 267 267 268 268 269 269 268 268 269 270 270 270 271 272 271 271 270 271 272 272 273 274 275 276 275 274 274 274 274 274 275 274 274 272 273 274 274 273 273 274 275 275 275 275 275 274 273 272 272 271 270 269 269 269 269 269 269
270 270 270 269 269 270 270 270 269 269 269 268 267 268 268 267 267 266 266 265 265 265 265 265 265 265 266 267 267 268 268 268 268 268 269 269 269 269 268 269 270 270 270 271 271 272 272 271 272 273 273 273 274 274 275 274 273 273 272 272 272 273 273 273 274 275 276 274 274 277 277 275 276 277 276 276 275 274 273 273 272 273 273 273 273 273 273 273
270 270 270 270 270 270 270 270 269 269 268 268 268 268 269 268 268 267 266 265 264 264 265 265 265 264 264 265 266 267 268 268 269 269 269 270 270 270 269 269 269 269 270 269 270 271 271 272 272 272 272 272 272 272 273 272 272 272 272 272 272 272 272 272 273 273 274 274 276 277 276 276 277 277 276 276 276 276 276 275 274 274 273 273 273 272 272 273
272 271 271 271 271 270 270 270 269 269 268 268 268 268 268 268 268 267 266 266 266 265 265 265 265 265 265 265 265 266 268 269 270 270 270 270 270 271 271 271 270 270 270 270 270 270 271 272 273 273 274 274 274 275 275 273 272 271 270 269 269 270 271 271 271 272 272 273 273 274 275 276 276 276 276 277 277 277 277 275 274 273 273 273 272 271 270 270
272 272 271 271 271 271 270 270 270 269 269 269 269 268 267 267 266 266 266 266 266 266 265 266 266 267 267 266 266 267 268 268 268 268 268 268 269 270 271 272 273 272 272 273 273 273 274 275 276 277 277 276 276 276 274 273 270 266 266 270 271 270 270 270 271 272 272 272 272 273 273 274 274 275 276 277 277 277 276 275 274 273 273 273 273 273 272 271
270 271 271 271 271 271 271 271 270 270 270 270 269 268 267 267 267 266 266 265 265 265 266 266 267 268 268 268 268 268 267 265 264 264 264 264 264 264 264 266 268 268 268 269 270 271 272 273 273 274 273 272 273 273 270 267 263 261 265 272 273 270 268 269 269 268 268 269 271 272 272 272 273 275 275 275 275 275 274 275 274 274 274 274 274 274 274 273
Height
5882 5882 5882 5882 5882 5883 5883 5883 5883 5883 5883 5883 5883 5883 5883 5883 5883 5884 5884 5883 5883 5883 5883 5883 5883 5883 5883 5883 5883 5882 5882 5882 5881 5881 5881 5881 5880 5880 5880 5879 5878 5878 5877 5876 5876 5875 5874 5874 5873 5872 5872 5871 5870 5870 5869 5868 5868 5867 5867 5866 5865 5864 5864 5863 5863 5862 5862 5861 5860 5859 5859 5859 5857 5857 5857 5857 5857 5856 5856 5854 5853 5854 5853 5852 5851 5850 5850 5850
5880 5880 5880 5880 5880 5881 5881 5881 5881 5881 5882 5882 5882 5882 5882 5882 5882 5882 5882 5881 5881 5881 5881 5881 5881 5881 5881 5881 5880 5880 5880 5880 5879 5878 5879 5879 5878 5878 5878 5877 5876 5876 5875 5874 5874 5873 5872 5872 5871 5870 5869 5868 5868 5867 5867 5866 5865 5865 5865 5865 5862 5861 5862 5861 5860 5859 5859 5859 5858 5857 5856 5856 5855 5854 5855 5855 5854 5854 5853 5851 5850 5851 5851 5850 5849 5848 5848 5848
5877 5877 5878 5878 5878 5878 5879 5879 5879 5879 5879 5879 5879 5879 5880 5879 5880 5879 5879 5879 5879 5879 5879 5879 5879 5879 5879 5879 5878 5878 5878 5877 5876 5876 5877 5877 5876 5875 5875 5875 5874 5873 5873 5872 5871 5871 5870 5869 5868 5867 5866 5866 5865 5864 5864 5863 5863 5863 5863 5862 5859 5858 5860 5858 5856 5857 5856 5856 5855 5854 5854 5853 5853 5852 5853 5853 5852 5852 5850 5847 5846 5848 5849 5848 5848 5847 5846 5846
5875 5875 5875 5875 5876 5876 5876 5876 5876 5877 5877 5877 5877 5877 5877 5877 5877 5877 5877 5877 5877 5877 5876 5876 5876 5876 5876 5876 5876 5876 5876 5875 5874 5874 5874 5874 5873 5873 5872 5872 5871 5871 5870 5869 5869 5868 5868 5867 5866 5865 5864 5863 5863 5862 5861 5859 5860 5861 5861 5859 5857 5856 5857 5855 5853 5854 5853 5853 5853 5851 5851 5851 5850 5850 5851 5850 5850 5851 5846 5842 5843 5846 5846 5846 5846 5845 5844 5843
5872 5872 5873 5873 5873 5873 5874 5874 5874 5874 5874 5874 5874 5875 5875 5875 5875 5875 5875 5874 5874 5874 5874 5874 5873 5873 5874 5874 5874 5874 5874 5872 5872 5872 5872 5871 5871 5870 5870 5869 5869 5868 5868 5867 5866 5865 5865 5864 5864 5862 5861 5860 5860 5860 5858 5856 5857 5859 5858 5856 5854 5853 5855 5853 5849 5850 5850 5849 5849 5848 5847 5848 5847 5848 5848 5846 5848 5847 5841 5838 5840 5842 5843 5843 5844 5843 5842 5841
5869 5870 5870 5870 5870 5871 5871 5871 5871 5871 5871 5871 5871 5872 5872 5872 5872 5872 5872 5871 5871 5871 5871 5871 5871 5871 5871 5871 5871 5871 5871 5869 5869 5869 5869 5868 5868 5868 5867 5866 5866 5866 5865 5864 5863 5862 5861 5861 5861 5860 5859 5858 5857 5857 5855 5854 5853 5856 5856 5854 5851 5850 5852 5851 5847 5847 5846 5846 5846 5844 5844 5844 5843 5845 5845 5844 5845 5842 5837 5837 5838 5839 5840 5841 5841 5840 5839 5838
5866 5867 5867 5867 5867 5868 5868 5868 5868 5868 5868 5868 5869 5869 5868 5869 5869 5869 5868 5868 5868 5868 5868 5868 5868 5868 5868 5868 5869 5869 5869 5866 5865 5866 5866 5866 5865 5865 5864 5864 5863 5863 5862 5861 5860 5859 5858 5858 5857 5856 5856 5856 5855 5854 5852 5851 5850 5852 5853 5851 5849 5847 5848 5848 5845 5844 5843 5842 5841 5839 5840 5841 5839 5842 5843 5843 5842 5836 5834 5835 5835 5836 5837 5837 5837 5836 5835 5834
5863 5863 5864 5864 5864 5865 5865 5865 5865 5865 5865 5865 5865 5865 5865 5866 5865 5866 5865 5865 5865 5865 5865 5864 5865 5865 5865 5866 5866 5867 5867 5862 5861 5864 5864 5863 5863 5862 5861 5861 5860 5860 5859 5858 5857 5856 5855 5854 5853 5852 5853 5853 5852 5852 5850 5847 5848 5848 5849 5848 5847 5845 5845 5844 5843 5842 5840 5839 5837 5835 5836 5837 5836 5838 5841 5842 5839 5832 5830 5832 5832 5832 5833 5833 5833 5832 5831 5831
5860 5860 5861 5861 5861 5861 5862 5862 5862 5862 5862 5862 5862 5862 5862 5862 5862 5862 5862 5862 5862 5862 5861 5861 5861 5861 5862 5863 5863 5866 5864 5859 5859 5861 5860 5860 5859 5859 5858 5858 5858 5857 5856 5855 5854 5853 5852 5851 5850 5849 5849 5850 5849 5849 5847 5845 5845 5845 5844 5844 5844 5843 5842 5841 5841 5839 5837 5835 5834 5831 5832 5834 5833 5835 5838 5839 5834 5828 5827 5828 5828 5828 5828 5828 5828 5828 5828 5827
5856 5857 5857 5857 5858 5858 5858 5858 5859 5859 5859 5858 5859 5858 5859 5859 5859 5859 5859 5859 5858 5859 5858 5858 5858 5858 5859 5860 5861 5865 5860 5855 5857 5858 5857 5857 5856 5856 5855 5855 5855 5854 5853 5853 5851 5850 5849 5847 5846 5846 5845 5846 5846 5846 5844 5842 5842 5841 5840 5841 5842 5840 5840 5840 5838 5836 5833 5831 5830 5826 5827 5830 5831 5832 5836 5835 5829 5824 5824 5825 5825 5824 5824 5824 5823 5824 5824 5824
5853 5853 5854 5854 5854 5855 5855 5855 5855 5856 5855 5855 5855 5855 5855 5855 5855 5855 5855 5855 5855 5855 5855 5854 5854 5855 5856 5857 5860 5862 5856 5853 5855 5855 5854 5853 5852 5853 5853 5852 5852 5850 5850 5850 5848 5847 5845 5844 5843 5842 5841 5841 5843 5842 5840 5839 5837 5837 5836 5837 5838 5836 5837 5838 5835 5833 5829 5827 5826 5822 5821 5826 5829 5830 5832 5831 5825 5822 5820 5821 5822 5821 5820 5819 5818 5819 5819 5820
5850 5850 5850 5850 5851 5851 5852 5852 5852 5852 5852 5852 5852 5852 5852 5852 5852 5852 5852 5851 5851 5851 5851 5850 5850 5851 5851 5854 5858 5857 5853 5852 5852 5851 5850 5849 5849 5850 5850 5849 5849 5847 5847 5846 5844 5843 5842 5840 5839 5838 5837 5837 5839 5838 5836 5836 5833 5833 5832 5831 5834 5833 5833 5836 5832 5828 5826 5824 5824 5818 5815 5821 5827 5828 5829 5826 5821 5819 5817 5818 5818 5817 5816 5815 5814 5814 5814 5816
5846 5846 5846 5847 5847 5848 5848 5848 5849 5849 5849 5848 5848 5848 5848 5848 5848 5848 5848 5848 5847 5847 5847 5846 5846 5846 5846 5851 5855 5852 5851 5851 5850 5847 5845 5845 5846 5847 5846 5846 5845 5844 5844 5843 5841 5840 5838 5836 5835 5834 5834 5833 5835 5833 5831 5831 5830 5830 5828 5826 5829 5828 5830 5833 5828 5823 5823 5821 5820 5815 5808 5815 5824 5826 5825 5822 5817 5815 5814 5815 5815 5813 5812 5811 5811 5810 5810 5811
5842 5842 5842 5843 5843 5844 5844 5844 5845 5845 5845 5845 5844 5844 5844 5844 5844 5845 5844 5843 5843 5843 5843 5842 5842 5841 5842 5848 5851 5849 5848 5847 5846 5844 5840 5841 5843 5843 5843 5842 5841 5841 5840 5839 5838 5836 5834 5833 5830 5830 5831 5831 5831 5829 5827 5826 5826 5827 5823 5822 5823 5821 5823 5828 5823 5820 5821 5819 5816 5811 5803 5807 5818 5822 5822 5817 5813 5812 5810 5811 5811 5809 5808 5807 5808 5807 5806 5807
5838 5838 5839 5839 5839 5839 5840 5840 5841 5841 5841 5841 5841 5840 5840 5840 5840 5840 5840 5840 5839 5838 5838 5838 5838 5837 5837 5843 5847 5845 5845 5843 5841 5839 5838 5839 5839 5839 5839 5838 5838 5837 5836 5835 5834 5832 5830 5828 5826 5826 5827 5828 5828 5825 5822 5821 5823 5823 5818 5817 5818 5813 5813 5820 5821 5819 5819 5816 5812 5807 5800 5800 5809 5817 5819 5814 5810 5808 5806 5807 5807 5806 5805 5804 5804 5803 5803 5803
5834 5834 5834 5835 5835 5835 5835 5836 5836 5837 5837 5837 5837 5836 5835 5835 5836 5836 5835 5836 5835 5834 5834 5833 5834 5832 5831 5838 5842 5842 5841 5839 5836 5835 5835 5835 5835 5835 5835 5834 5834 5833 5832 5831 5830 5828 5826 5823 5822 5823 5824 5825 5825 5822 5818 5816 5820 5821 5813 5809 5810 5808 5807 5812 5818 5819 5816 5811 5806 5802 5796 5796 5802 5810 5813 5811 5807 5804 5802 5803 5804 5804 5803 5802 5801 5800 5799 5800
5829 5830 5830 5830 5830 5831 5831 5831 5831 5832 5832 5832 5832 5832 5831 5831 5831 5831 5831 5831 5830 5830 5829 5828 5830 5827 5826 5832 5836 5837 5836 5834 5832 5831 5831 5831 5831 5831 5830 5830 5829 5828 5828 5827 5825 5825 5822 5819 5817 5818 5820 5823 5823 5819 5813 5812 5815 5815 5809 5804 5803 5804 5804 5805 5811 5816 5812 5805 5800 5796 5791 5792 5798 5803 5806 5807 5805 5801 5799 5800 5801 5801 5801 5800 5798 5797 5796 5796
5825 5825 5825 5825 5826 5826 5826 5827 5827 5827 5827 5827 5827 5827 5826 5826 5826 5826 5826 5826 5826 5826 5824 5825 5825 5822 5823 5828 5829 5831 5832 5829 5827 5827 5826 5827 5827 5826 5826 5825 5825 5824 5823 5822 5822 5821 5817 5814 5812 5813 5816 5821 5822 5816 5809 5808 5810 5807 5804 5801 5799 5800 5801 5801 5805 5809 5807 5800 5794 5790 5786 5788 5793 5796 5799 5802 5802 5798 5796 5798 5798 5798 5798 5797 5795 5794 5793 5792
5820 5820 5821 5821 5821 5821 5822 5822 5822 5822 5822 5822 5822 5822 5821 5821 5821 5820 5821 5821 5821 5821 5819 5820 5821 5818 5818 5822 5823 5824 5825 5824 5823 5823 5823 5823 5823 5822 5821 5820 5820 5819 5817 5817 5818 5815 5812 5809 5807 5808 5814 5820 5818 5810 5805 5805 5804 5801 5798 5797 5796 5796 5796 5798 5800 5802 5800 5792 5788 5787 5783 5783 5786 5789 5793 5796 5797 5795 5794 5796 5795 5794 5793 5792 5791 5790 5790 5789
5815 5815 5815 5816 5816 5816 5816 5817 5817 5817 5817 5817 5817 5817 5817 5816 5816 5815 5815 5816 5816 5816 5814 5814 5815 5814 5814 5816 5817 5816 5818 5819 5819 5819 5820 5820 5819 5817 5816 5815 5814 5813 5812 5813 5811 5808 5806 5804 5802 5806 5814 5816 5810 5804 5802 5801 5800 5797 5795 5793 5793 5792 5791 5795 5796 5796 5795 5783 5780 5783 5780 5779 5781 5783 5787 5790 5791 5792 5793 5793 5790 5789 5788 5786 5787 5787 5787 5785
5810 5810 5810 5811 5811 5811 5811 5811 5811 5811 5812 5812 5812 5811 5811 5811 5810 5810 5810 5811 5811 5810 5810 5809 5807 5809 5811 5811 5809 5809 5810 5812 5815 5816 5816 5815 5814 5812 5811 5811 5808 5807 5808 5807 5803 5802 5802 5798 5799 5807 5811 5808 5802 5800 5799 5797 5795 5793 5791 5789 5788 5788 5788 5790 5791 5791 5790 5778 5774 5778 5774 5774 5777 5778 5782 5785 5785 5786 5789 5788 5786 5785 5783 5782 5783 5784 5783 5781
5804 5804 5805 5805 5805 5805 5806 5806 5806 5806 5806 5806 5807 5806 5805 5805 5804 5804 5803 5804 5807 5806 5804 5804 5803 5803 5805 5804 5803 5803 5803 5807 5811 5811 5810 5810 5809 5807 5806 5804 5802 5802 5802 5799 5797 5798 5795 5792 5798 5805 5803 5798 5796 5797 5795 5792 5791 5789 5788 5786 5784 5786 5784 5784 5786 5786 5784 5775 5771 5772 5767 5765 5772 5775 5777 5781 5781 5781 5782 5782 5782 5781 5781 5780 5780 5779 5778 5778
5797 5798 5798 5799 5799 5799 5800 5800 5800 5800 5800 5800 5801 5800 5800 5799 5798 5798 5796 5795 5799 5802 5800 5800 5799 5797 5798 5798 5797 5797 5798 5802 5804 5804 5804 5804 5804 5803 5800 5799 5797 5796 5794 5793 5795 5793 5788 5788 5795 5797 5793 5793 5793 5792 5790 5787 5786 5785 5785 5783 5780 5783 5781 5777 5778 5780 5778 5772 5769 5768 5761 5757 5765 5771 5774 5777 5777 5776 5775 5776 5778 5778 5778 5778 5776 5775 5774 5774
5791 5792 5792 5792 5793 5793 5793 5794 5794 5794 5794 5794 5794 5794 5794 5794 5793 5792 5791 5788 5788 5794 5797 5796 5792 5791 5792 5792 5792 5793 5794 5796 5797 5798 5798 5797 5797 5796 5794 5793 5791 5789 5789 5791 5791 5786 5781 5784 5789 5789 5787 5788 5787 5785 5784 5782 5781 5780 5781 5780 5777 5779 5778 5773 5772 5772 5770 5768 5767 5765 5755 5750 5758 5766 5769 5773 5773 5770 5770 5772 5774 5774 5773 5773 5772 5771 5770 5769
5784 5785 5785 5785 5786 5786 5787 5787 5787 5787 5788 5788 5788 5788 5788 5787 5787 5786 5785 5783 5780 5784 5790 5789 5786 5786 5787 5787 5788 5789 5788 5789 5790 5791 5790 5790 5790 5789 5788 5787 5785 5785 5786 5786 5785 5778 5777 5781 5783 5783 5782 5782 5780 5779 5779 5778 5777 5776 5775 5776 5775 5774 5773 5770 5770 5766 5762 5762 5763 5762 5754 5746 5751 5759 5764 5766 5766 5765 5766 5768 5771 5771 5769 5768 5768 5767 5766 5764
5778 5778 5778 5779 5779 5779 5779 5779 5780 5780 5781 5782 5781 5781 5781 5781 5781 5780 5780 5777 5773 5776 5780 5779 5780 5782 5783 5784 5784 5783 5782 5783 5785 5783 5782 5783 5783 5782 5781 5781 5780 5781 5781 5780 5777 5772 5773 5779 5779 5777 5776 5774 5773 5772 5774 5775 5772 5769 5769 5772 5772 5769 5768 5767 5766 5763 5758 5756 5756 5757 5753 5745 5745 5752 5758 5759 5757 5758 5762 5765 5766 5767 5765 5764 5764 5764 5762 5760
5770 5771 5771 5771 5772 5772 5772 5772 5772 5773 5774 5775 5775 5775 5774 5775 5775 5774 5775 5771 5767 5769 5769 5769 5773 5776 5778 5779 5779 5778 5777 5778 5778 5777 5776 5776 5775 5775 5774 5774 5775 5775 5775 5772 5769 5767 5771 5774 5773 5771 5770 5768 5767 5768 5771 5770 5765 5762 5764 5766 5765 5764 5764 5762 5761 5759 5755 5753 5751 5748 5748 5746 5743 5744 5748 5749 5749 5752 5758 5761 5762 5763 5763 5762 5761 5760 5759 5758
5763 5763 5764 5764 5765 5765 5765 5764 5764 5765 5766 5767 5768 5768 5767 5768 5768 5769 5769 5765 5761 5760 5761 5763 5765 5767 5770 5771 5771 5772 5771 5772 5772 5771 5771 5769 5768 5768 5768 5768 5769 5768 5768 5765 5763 5765 5766 5766 5766 5765 5764 5762 5763 5765 5765 5762 5759 5759 5760 5759 5758 5758 5758 5757 5756 5754 5752 5750 5745 5742 5745 5748 5743 5739 5739 5738 5740 5746 5751 5755 5757 5758 5759 5759 5758 5756 5754 5754
5756 5757 5757 5757 5759 5759 5758 5758 5757 5758 5759 5760 5760 5760 5761 5761 5762 5764 5763 5758 5755 5753 5755 5759 5759 5759 5761 5761 5762 5763 5763 5764 5764 5764 5764 5763 5762 5762 5762 5762 5762 5761 5761 5759 5759 5760 5760 5760 5760 5758 5757 5759 5760 5759 5757 5755 5755 5755 5754 5752 5752 5752 5751 5751 5750 5748 5748 5745 5740 5739 5745 5747 5741 5737 5734 5729 5732 5739 5742 5746 5749 5751 5753 5755 5755 5753 5751 5749
5750 5751 5751 5752 5753 5753 5753 5753 5751 5752 5753 5752 5752 5753 5754 5754 5756 5757 5754 5751 5750 5749 5751 5754 5752 5751 5752 5752 5753 5754 5755 5756 5756 5756 5756 5756 5756 5756 5755 5756 5754 5754 5754 5752 5753 5755 5755 5754 5753 5752 5753 5754 5752 5751 5750 5750 5750 5749 5748 5748 5746 5745 5744 5744 5742 5742 5740 5738 5738 5739 5744 5745 5737 5731 5729 5726 5727 5731 5733 5737 5739 5740 5744 5748 5750 5750 5748 5746
5745 5745 5745 5746 5747 5748 5749 5748 5746 5747 5747 5746 5747 5747 5747 5746 5748 5748 5745 5746 5746 5744 5747 5747 5743 5744 5745 5745 5745 5745 5746 5746 5747 5748 5748 5748 5748 5748 5749 5748 5747 5747 5747 5747 5747 5749 5749 5747 5747 5747 5747 5746 5744 5745 5745 5745 5744 5743 5742 5742 5740 5739 5737 5735 5734 5735 5732 5733 5737 5738 5740 5741 5732 5726 5727 5727 5725 5724 5726 5729 5729 5729 5732 5735 5739 5742 5743 5742
5738 5738 5739 5740 5741 5742 5743 5743 5742 5741 5741 5742 5742 5741 5740 5737 5738 5740 5740 5742 5740 5736 5741 5740 5737 5738 5737 5737 5738 5737 5737 5738 5738 5740 5740 5741 5741 5742 5742 5741 5740 5739 5740 5742 5742 5742 5742 5741 5741 5740 5740 5740 5739 5738 5739 5738 5738 5737 5736 5736 5733 5732 5730 5727 5726 5726 5727 5731 5734 5732 5732 5730 5723 5722 5726 5728 5728 5725 5722 5721 5720 5722 5724 5724 5724 5726 5730 5732
5731 5731 5732 5733 5735 5736 5735 5736 5737 5736 5736 5736 5735 5734 5732 5727 5729 5734 5735 5735 5733 5730 5734 5733 5731 5731 5730 5730 5731 5730 5730 5731 5730 5731 5731 5732 5734 5735 5735 5734 5735 5733 5732 5735 5734 5733 5734 5735 5735 5733 5734 5736 5733 5732 5732 5731 5732 5730 5730 5729 5726 5726 5722 5718 5720 5721 5722 5727 5727 5724 5723 5717 5714 5719 5723 5725 5728 5726 5722 5719 5716 5716 5718 5717 5715 5713 5714 5718
5724 5725 5725 5726 5728 5729 5729 5729 5729 5730 5729 5728 5726 5726 5724 5720 5723 5728 5728 5728 5727 5726 5727 5726 5725 5725 5724 5725 5725 5725 5725 5723 5723 5723 5723 5724 5725 5727 5729 5729 5729 5727 5725 5725 5726 5726 5725 5727 5730 5728 5728 5730 5727 5726 5726 5725 5725 5723 5724 5722 5718 5720 5716 5712 5716 5716 5714 5717 5716 5713 5711 5707 5709 5715 5718 5719 5720 5720 5718 5716 5715 5713 5712 5709 5708 5707 5706 5706
5718 5718 5718 5720 5721 5722 5722 5721 5721 5721 5720 5718 5716 5715 5715 5716 5719 5721 5721 5722 5721 5720 5720 5719 5719 5719 5719 5720 5719 5720 5718 5716 5717 5717 5715 5716 5717 5720 5722 5722 5722 5721 5718 5717 5719 5720 5716 5720 5725 5720 5720 5724 5721 5721 5720 5718 5717 5717 5717 5713 5712 5715 5713 5707 5707 5707 5705 5703 5703 5703 5699 5701 5707 5709 5711 5713 5712 5712 5711 5710 5710 5708 5705 5702 5700 5701 5700 5698
5711 5711 5712 5714 5716 5715 5713 5713 5713 5712 5711 5709 5705 5705 5710 5713 5714 5715 5715 5715 5713 5713 5713 5712 5713 5713 5712 5713 5713 5713 5712 5709 5710 5710 5709 5709 5709 5713 5715 5714 5715 5714 5712 5711 5712 5711 5708 5713 5719 5714 5712 5716 5714 5713 5713 5710 5708 5708 5707 5707 5708 5709 5705 5700 5695 5696 5697 5689 5689 5696 5691 5693 5700 5700 5705 5709 5706 5706 5705 5704 5704 5700 5698 5697 5695 5694 5693 5692
5702 5703 5704 5708 5708 5706 5705 5705 5704 5702 5701 5699 5694 5697 5704 5707 5708 5709 5708 5709 5708 5706 5705 5704 5706 5706 5705 5705 5707 5708 5704 5701 5701 5701 5702 5702 5701 5706 5707 5706 5707 5706 5706 5705 5702 5702 5700 5702 5711 5711 5705 5706 5706 5704 5703 5701 5700 5698 5698 5702 5702 5697 5694 5692 5684 5683 5685 5676 5676 5686 5685 5686 5690 5688 5695 5702 5702 5702 5700 5697 5696 5693 5691 5691 5690 5689 5687 5686
5694 5694 5697 5700 5700 5697 5696 5696 5694 5693 5691 5688 5686 5692 5697 5698 5702 5703 5702 5702 5701 5699 5696 5695 5697 5699 5698 5698 5700 5701 5696 5693 5693 5692 5693 5693 5693 5698 5699 5698 5699 5698 5699 5698 5692 5693 5692 5688 5697 5705 5699 5695 5698 5697 5693 5694 5692 5688 5688 5692 5691 5686 5684 5684 5677 5673 5673 5666 5663 5670 5674 5677 5681 5683 5686 5690 5694 5695 5692 5689 5687 5684 5684 5683 5683 5682 5679 5677
5686 5686 5689 5693 5691 5688 5688 5686 5685 5684 5680 5678 5681 5686 5689 5691 5694 5695 5693 5693 5691 5689 5688 5687 5688 5688 5689 5691 5692 5692 5688 5685 5684 5684 5684 5683 5684 5689 5691 5689 5690 5690 5690 5689 5683 5683 5683 5676 5680 5694 5693 5685 5686 5688 5686 5686 5684 5679 5678 5678 5678 5677 5676 5673 5668 5665 5664 5658 5653 5654 5654 5658 5671 5681 5682 5681 5683 5683 5681 5680 5679 5678 5678 5677 5676 5674 5671 5668
5677 5677 5681 5684 5681 5679 5679 5676 5674 5673 5670 5672 5677 5678 5680 5682 5684 5685 5685 5683 5681 5679 5679 5680 5679 5677 5679 5683 5683 5682 5680 5677 5676 5675 5674 5674 5676 5680 5681 5680 5682 5681 5679 5679 5676 5674 5674 5667 5666 5678 5682 5674 5674 5678 5677 5677 5675 5670 5668 5668 5668 5668 5666 5661 5657 5658 5656 5649 5644 5642 5636 5641 5659 5672 5676 5676 5672 5668 5669 5669 5669 5670 5671 5669 5667 5665 5663 5661
5667 5667 5672 5675 5671 5670 5669 5665 5664 5665 5663 5665 5670 5671 5671 5672 5674 5677 5676 5672 5671 5670 5669 5669 5670 5669 5670 5673 5673 5673 5671 5668 5669 5667 5665 5667 5669 5670 5672 5673 5675 5674 5672 5673 5672 5668 5666 5661 5656 5660 5665 5666 5667 5668 5666 5664 5664 5661 5658 5658 5659 5659 5658 5652 5646 5649 5650 5641 5637 5634 5624 5628 5645 5658 5667 5671 5667 5661 5660 5659 5659 5660 5659 5658 5658 5656 5653 5651
5658 5660 5663 5663 5661 5660 5658 5654 5656 5657 5655 5658 5663 5663 5662 5663 5665 5667 5666 5663 5660 5660 5659 5659 5660 5661 5661 5662 5663 5663 5661 5658 5659 5659 5657 5659 5660 5662 5666 5667 5666 5666 5665 5664 5663 5661 5658 5653 5647 5647 5651 5655 5659 5658 5655 5653 5652 5651 5647 5648 5651 5650 5649 5644 5637 5641 5643 5633 5631 5628 5614 5614 5631 5646 5654 5660 5661 5659 5655 5651 5651 5651 5650 5649 5647 5646 5643 5640
5650 5652 5654 5653 5652 5650 5646 5643 5647 5649 5647 5652 5656 5654 5652 5653 5655 5656 5656 5653 5651 5650 5650 5649 5651 5652 5651 5652 5652 5651 5650 5648 5648 5650 5650 5649 5650 5654 5657 5658 5657 5657 5655 5653 5652 5651 5648 5643 5639 5637 5637 5640 5645 5647 5646 5644 5641 5638 5637 5642 5644 5641 5642 5638 5631 5632 5629 5623 5625 5620 5604 5604 5620 5634 5641 5643 5648 5650 5648 5646 5644 5642 5642 5640 5636 5633 5631 5627
5640 5643 5643 5642 5641 5639 5635 5635 5639 5639 5639 5643 5644 5643 5644 5643 5644 5648 5648 5643 5641 5642 5641 5640 5642 5642 5641 5642 5640 5640 5641 5636 5634 5639 5641 5639 5641 5645 5646 5645 5645 5645 5644 5643 5643 5639 5635 5632 5630 5628 5625 5626 5630 5635 5636 5636 5635 5630 5630 5635 5634 5632 5633 5629 5625 5623 5613 5612 5619 5608 5594 5600 5614 5621 5625 5629 5633 5637 5638 5638 5636 5634 5633 5630 5626 5621 5616 5613
5630 5632 5633 5632 5630 5629 5627 5630 5631 5628 5629 5632 5631 5632 5634 5633 5636 5640 5638 5633 5632 5633 5632 5631 5632 5632 5632 5632 5630 5629 5631 5628 5625 5628 5630 5630 5632 5635 5635 5634 5634 5634 5633 5632 5631 5628 5624 5623 5623 5619 5615 5615 5618 5623 5628 5629 5625 5620 5621 5625 5624 5624 5624 5619 5616 5611 5600 5602 5607 5596 5586 5597 5608 5610 5611 5615 5619 5621 5624 5626 5626 5626 5623 5618 5613 5607 5602 5602
5620 5622 5623 5623 5620 5618 5620 5623 5622 5618 5621 5623 5620 5621 5624 5624 5626 5630 5627 5624 5623 5623 5623 5622 5623 5623 5622 5622 5620 5619 5621 5621 5618 5617 5619 5620 5621 5623 5624 5625 5623 5623 5623 5622 5621 5618 5613 5611 5613 5610 5606 5606 5609 5613 5621 5620 5611 5607 5609 5611 5612 5613 5613 5611 5604 5596 5594 5594 5589 5586 5588 5588 5593 5600 5602 5605 5607 5607 5610 5614 5614 5616 5612 5604 5597 5593 5592 5594
5610 5611 5613 5612 5610 5610 5612 5614 5612 5610 5613 5614 5609 5610 5616 5617 5616 5618 5617 5616 5615 5614 5613 5611 5613 5613 5611 5612 5611 5608 5610 5612 5609 5608 5609 5609 5610 5612 5614 5615 5612 5612 5615 5614 5611 5609 5602 5598 5602 5602 5596 5598 5601 5603 5609 5609 5601 5598 5598 5597 5600 5600 5599 5598 5588 5585 5592 5584 5568 5577 5588 5578 5576 5588 5591 5591 5595 5594 5595 5598 5597 5596 5593 5587 5586 5587 5586 5586
5600 5601 5602 5600 5600 5602 5603 5603 5603 5602 5604 5604 5600 5600 5606 5608 5607 5607 5607 5606 5606 5605 5603 5601 5603 5604 5602 5602 5601 5597 5598 5601 5599 5599 5600 5598 5599 5601 5603 5605 5602 5601 5604 5603 5600 5599 5591 5586 5592 5593 5586 5588 5592 5591 5595 5596 5590 5590 5589 5587 5590 5590 5587 5584 5578 5578 5582 5568 5557 5570 5576 5566 5568 5577 5575 5576 5578 5577 5579 5581 5580 5578 5575 5574 5577 5579 5576 5574
5591 5592 5592 5590 5590 5594 5594 5593 5594 5593 5594 5594 5591 5592 5596 5597 5597 5598 5596 5594 5595 5596 5594 5591 5591 5593 5593 5593 5591 5587 5588 5589 5588 5589 5590 5589 5588 5588 5591 5594 5593 5592 5593 5592 5591 5589 5581 5576 5582 5582 5576 5577 5580 5580 5583 5582 5579 5579 5578 5578 5579 5578 5576 5574 5570 5571 5570 5559 5557 5562 5558 5555 5562 5562 5560 5562 5564 5564 5565 5566 5565 5564 5562 5563 5565 5565 5563 5561
5581 5582 5582 5580 5581 5586 5585 5582 5583 5583 5584 5585 5582 5583 5587 5586 5587 5588 5585 5584 5583 5585 5585 5582 5580 5582 5583 5583 5582 5579 5579 5580 5579 5578 5580 5579 5578 5577 5578 5580 5583 5584 5583 5581 5581 5580 5573 5568 5571 5571 5564 5562 5567 5570 5569 5568 5567 5565 5564 5567 5569 5567 5565 5563 5560 5561 5560 5553 5552 5552 5546 5546 5550 5546 5546 5551 5553 5553 5554 5553 5552 5551 5550 5551 5552 5551 5552 5550
5572 5571 5572 5572 5572 5575 5575 5574 5574 5573 5573 5576 5574 5574 5576 5576 5576 5577 5576 5576 5574 5574 5576 5573 5571 5572 5572 5572 5572 5570 5571 5573 5571 5569 5570 5570 5570 5570 5569 5569 5573 5574 5573 5572 5570 5569 5566 5561 5561 5561 5552 5549 5559 5560 5555 5556 5554 5548 5549 5555 5559 5558 5553 5551 5551 5551 5549 5543 5541 5540 5536 5533 5535 5536 5538 5541 5541 5541 5542 5541 5540 5539 5539 5540 5539 5539 5539 5539
5563 5561 5562 5562 5562 5566 5566 5564 5565 5563 5564 5567 5566 5563 5565 5566 5566 5567 5567 5566 5564 5565 5567 5566 5563 5563 5562 5561 5561 5561 5563 5564 5561 5560 5562 5561 5561 5563 5563 5563 5564 5564 5565 5565 5561 5560 5559 5553 5553 5553 5542 5538 5549 5551 5546 5544 5535 5531 5544 5550 5546 5545 5543 5541 5541 5540 5537 5534 5530 5526 5523 5521 5523 5527 5530 5530 5530 5530 5530 5528 5527 5527 5528 5529 5528 5528 5528 5527